Tracking 17154 objects as of 3-August-2015
HD Live streaming from Space Station

DELTA 1 DEB

Track DELTA 1 DEB now!
10-day predictions
DELTA 1 DEB is classified as:


NORAD ID: 2888
Int'l Code: 1965-089D
Perigee: 1,158.5 km
Apogee: 2,331.9 km
Inclination: 59.2 °
Period: 121.3 minutes
Semi major axis: 8116 km
RCS: 0.0459 m2 (small)
Launch date: November 6, 1965
Source: United States (US)

Note: This is SATELLITE DEBRIS
Your satellite tracking list
Your tracking list is empty





NASA's NSSDC Master Catalog

Two Line Element Set (TLE):
1 02888U 65089D   15213.42915834 -.00000048  00000-0  18595-3 0  9996
2 02888 059.1986 162.7468 0722857 107.3946 354.0247 11.87334347103135

Source of the keplerian elements: AFSPC

N2YO: 320